Flag for Germany Weather past 2 weeks in Wermelskirchen, North Rhine-Westphalia, Germany

Now
39 °F

Clear.


Feels Like: 32 °F
Forecast: 36 / 45 °F
Wind: 10 mph from South

Location: Koeln / Bonn

Current Time: Feb 28, 2015 at 7:10:22 PM

Latest Report: Feb 28, 2015 at 6:20 PM


Visibility: 10 mi

Pressure: 29.98 "Hg

Humidity: 56%

Dew point: 25 °F

Location of WermelskirchenLocation

Historic Weather in Wermelskirchen — Graph

°F

Wermelskirchen temperature yesterday

Maximum temperature yesterday: 43 °F (at 12:20 AM)
Minimum temperature yesterday: 30 °F (at 10:20 PM)
Average temperature yesterday: 40 °F

Past Weeks' High & Low Weather Summary

 TemperatureHumidityPressure
High52 °F (Feb 15, 2:20 PM)100% (Feb 17, 10:50 AM)30.77 "Hg (Feb 17, 10:50 AM)
Low28 °F (Feb 15, 6:50 AM)38% (Feb 15, 2:20 PM)29.39 "Hg (Feb 21, 4:20 AM)
Average39 °F80%29.99 "Hg
* Reported Feb 13 5:20 PM — Feb 28 5:50 PM, Wermelskirchen, Weather by CustomWeather, © 2015

Note: Actual official high and low records may vary slightly from our data, if they occured in-between our weather recording intervals... More about our weather records

Advertising

Wermelskirchen weather history for previous 24 hours

 ConditionsComfort  
Time TempWeatherWind HumidityBarometerVisibility
5:50 PM
Sat, Feb 28
43 °FSunny.13 mph49%29.98 "Hg10 mi
5:20 PM45 °FSunny.14 mph42%29.98 "Hg10 mi
4:50 PM46 °FSunny.15 mph40%29.98 "Hg10 mi
4:20 PM46 °FSunny.14 mph40%30.01 "Hg10 mi
3:50 PM46 °FScattered clouds.12 mph40%30.01 "HgN/A
3:20 PM48 °FScattered clouds.12 mph43%30.04 "HgN/A
2:50 PM46 °FPartly sunny.12 mph46%30.04 "HgN/A
2:20 PM46 °FScattered clouds.14 mph46%30.07 "HgN/A
1:50 PM46 °FScattered clouds.12 mph46%30.07 "HgN/A
1:20 PM46 °FPartly sunny.10 mph50%30.07 "HgN/A
12:50 PM45 °FPartly sunny.12 mph57%30.09 "HgN/A
12:20 PM45 °FPartly sunny.12 mph57%30.09 "HgN/A
11:50 AM43 °FPartly sunny.12 mph61%30.12 "HgN/A
11:20 AM41 °FSunny.10 mph66%30.12 "Hg10 mi
10:50 AM41 °FSunny.10 mph70%30.12 "Hg10 mi
10:20 AM39 °FSunny.7 mph75%30.15 "Hg10 mi
9:50 AM37 °FSunny.8 mph81%30.15 "Hg10 mi
9:20 AM36 °FSunny.9 mph81%30.15 "Hg10 mi
8:50 AM34 °FSunny.8 mph87%30.15 "Hg10 mi
8:20 AM32 °FSunny.8 mph93%30.15 "Hg10 mi
7:50 AM30 °FSunny.7 mph93%30.15 "Hg10 mi
7:20 AM30 °FFog.6 mph93%30.15 "Hg5 mi
6:50 AM30 °FFog.7 mph93%30.15 "Hg5 mi
6:20 AM30 °FFog.6 mph93%30.15 "HgN/A
5:50 AM28 °FFog.6 mph93%30.15 "HgN/A
5:20 AM28 °FFog.6 mph93%30.15 "HgN/A
4:50 AM30 °FFog.5 mph93%30.15 "HgN/A
4:20 AM28 °FClear.3 mph93%30.15 "Hg10 mi
3:50 AM32 °FClear.6 mph93%30.15 "Hg10 mi
3:20 AM32 °FClear.5 mph93%30.15 "Hg10 mi
2:50 AM32 °FPassing clouds.5 mph93%30.15 "HgN/A
2:20 AM32 °FPassing clouds.1 mph93%30.18 "HgN/A
1:50 AM32 °FPassing clouds.2 mph93%30.15 "HgN/A
1:20 AM32 °FPassing clouds.1 mph93%30.15 "HgN/A
12:50 AM34 °FClear.3 mph87%30.15 "Hg10 mi
12:20 AM34 °FPassing clouds.3 mph87%30.15 "HgN/A
11:50 PM
Fri, Feb 27
34 °FPassing clouds.1 mph87%30.18 "HgN/A
11:20 PM34 °FPassing clouds.1 mph87%30.15 "HgN/A
10:50 PM32 °FPassing clouds.2 mph93%30.15 "HgN/A
10:20 PM30 °FPassing clouds.2 mph86%30.15 "HgN/A
9:50 PM32 °FPassing clouds.2 mph87%30.15 "HgN/A
9:20 PM36 °FPassing clouds.2 mph81%30.12 "HgN/A
8:50 PM36 °FClear.1 mph81%30.12 "Hg10 mi
8:20 PM36 °FClear.2 mph75%30.12 "Hg10 mi
7:50 PM37 °FClear.5 mph75%30.09 "Hg10 mi
7:20 PM37 °FClear.6 mph75%30.09 "Hg10 mi
Weather by CustomWeather, © 2015

See weather overviewHow to use our weather pages